This is the latest recevied weather packets stored in our database for station/object DL4ABR-6. If no packets are shown the sender has not sent any weather packets the latest 10 day(s).
| Time | Temp. | Humidity | Pressure | Rain* | Wind** | Luminosity | Snow |
|---|---|---|---|---|---|---|---|
| 1778144130 | 7.78° C | 99% | 1010.2 hPa | 6.86 mm | - | - | - |
| 1778143295 | 7.78° C | 99% | 1010 hPa | 6.86 mm | - | - | - |
| 1778142475 | 7.78° C | 99% | 1009.9 hPa | 6.86 mm | - | - | - |
| 1778141730 | 7.78° C | 99% | 1009.9 hPa | 6.86 mm | - | - | - |
| 1778140935 | 7.22° C | 99% | 1009.5 hPa | 6.86 mm | - | - | - |
| 1778140135 | 7.78° C | 99% | 1009.7 hPa | 6.86 mm | - | - | - |
| 1778139335 | 7.78° C | 99% | 1009.3 hPa | 6.86 mm | - | - | - |
| 1778138450 | 7.22° C | 99% | 1009.5 hPa | 6.86 mm | - | - | - |
| 1778137554 | 7.22° C | 99% | 1009.2 hPa | 6.86 mm | - | - | - |
| 1778136800 | 7.22° C | 99% | 1009.1 hPa | 6.86 mm | - | - | - |
| 1778136027 | 7.22° C | 99% | 1009.1 hPa | 6.86 mm | - | - | - |
| 1778135300 | 7.78° C | 99% | 1008.8 hPa | 6.86 mm | - | - | - |
| 1778134400 | 7.22° C | 99% | 1008.4 hPa | 6.86 mm | - | - | - |
| 1778133515 | 7.22° C | 99% | 1008.2 hPa | 6.86 mm | - | - | - |
| 1778132655 | 7.22° C | 99% | 1008.2 hPa | 6.86 mm | - | - | - |
| 1778131901 | 7.22° C | 99% | 1008.1 hPa | 6.86 mm | - | - | - |
| 1778131010 | 7.22° C | 99% | 1008.1 hPa | 6.86 mm | - | - | - |
| 1778130135 | 7.22° C | 99% | 1007.6 hPa | 6.6 mm | - | - | - |
| 1778129395 | 6.67° C | 99% | 1007.7 hPa | 6.35 mm | - | - | - |
| 1778128520 | 6.67° C | 99% | 1007.4 hPa | 5.84 mm | - | - | - |
| 1778127640 | 6.67° C | 99% | 1007.2 hPa | 5.08 mm | - | - | - |
| 1778126861 | 6.67° C | 99% | 1007.2 hPa | 4.83 mm | - | - | - |
| 1778126095 | 7.22° C | 99% | 1007.2 hPa | 4.57 mm | - | - | - |
| 1778125330 | 7.22° C | 99% | 1007 hPa | 4.57 mm | - | - | - |
| 1778124465 | 7.22° C | 99% | 1007 hPa | 4.06 mm | - | - | - |
* Rain since midnight (hover to see other rain measurements)
** Current wind speed in m/s (hover to see current wind gust speed)